Knoxville, TN

12:22 PM EST on November 21, 2019 (GMT -0500)
McGhee Tyson

Weather History for KTYS - September, 2019

Change the Weather History Date:

Thursday, September 5, 2019

  Actual Average Record
Temperature  
Mean Temperature 79 °F 75 °F  
Max Temperature 88 °F 85 °F 103 °F (1954)
Min Temperature 70 °F 64 °F 50 °F (2010)
Degree Days  
Heating Degree Days 0 0  
Month to date heating degree days 0 0  
Since 1 July heating degree days 0 0  
Cooling Degree Days 14 10  
Month to date cooling degree days 69 52  
Year to date cooling degree days 1522 1333  
Growing Degree Days 29 (Base 50)    
Moisture  
Dew Point 65 °F    
Average Humidity 66    
Maximum Humidity 93    
Minimum Humidity 42    
Precipitation  
Precipitation 0.00 in 0.09 in 5.49 in (2011)
Month to date precipitation 0.00 0.48  
Year to date precipitation 48.23 34.08  
Snow  
Snow 0.00 in 0.00 in - ()
Month to date snowfall 0.0 0.0  
Since 1 July snowfall 0.0 0.0  
Since 1 September snowfall 0.0 0.0  
Snow Depth 0.00 in    
Sea Level Pressure  
Sea Level Pressure 29.93 in    
Wind  
Wind Speed 4 mph ()    
Max Wind Speed 16 mph    
Max Gust Speed 20 mph    
Visibility 9.9 miles    
Events      
T = Trace of Precipitation, MM = Missing Value Source: Averaged Metar Reports

Daily Weather History Graph

Daily Weather History Graph

Search for Another Location

Airport or City:

Astronomy

Sep. 05, 2019 Rise Set
Actual Time 7:10 AM EDT 7:57 PM EDT
Civil Twilight 6:44 AM EDT 8:23 PM EDT
Nautical Twilight 6:14 AM EDT 8:54 PM EDT
Astronomical Twilight 5:42 AM EDT 9:25 PM EDT
Moon 2:03 PM EDT (9/5) No Moon Set
Length of Visible Light 13h 39m
Length of Day
12h 47m
Waxing Crescent, 45% of the Moon is Illuminated
Sep 5
Waxing Crescent
Sep 5
First Quarter
Sep 14
Full
Sep 21
Last Quarter
Sep 28
New

Hourly Weather History & Observations

Time (EDT) Temp. Heat Index Dew Point Humidity Pressure Visibility Wind Dir Wind Speed Gust Speed Precip Events Conditions
12:53 AM 75.0 °F - 70.0 °F 84% 29.94 in 10.0 mi Calm Calm - N/A   Clear
1:53 AM 73.9 °F - 69.1 °F 85% 29.94 in 10.0 mi Calm Calm - N/A   Clear
2:53 AM 73.0 °F - 69.1 °F 87% 29.93 in 10.0 mi NNE 4.6 mph - N/A   Clear
3:53 AM 75.0 °F - 69.1 °F 82% 29.93 in 10.0 mi Calm Calm - N/A   Clear
4:53 AM 72.0 °F - 69.1 °F 91% 29.93 in 10.0 mi Calm Calm - N/A   Scattered Clouds
5:53 AM 71.1 °F - 68.0 °F 90% 29.93 in 10.0 mi Calm Calm - N/A   Scattered Clouds
6:53 AM 72.0 °F - 68.0 °F 87% 29.94 in 10.0 mi North 4.6 mph - N/A   Scattered Clouds
7:53 AM 71.1 °F - 66.9 °F 87% 29.95 in 10.0 mi North 3.5 mph - N/A   Scattered Clouds
8:53 AM 71.1 °F - 66.9 °F 87% 29.96 in 9.0 mi Calm Calm - N/A   Scattered Clouds
9:53 AM 73.9 °F - 69.1 °F 85% 29.96 in 9.0 mi ENE 3.5 mph - N/A   Scattered Clouds
10:53 AM 80.1 °F 82.9 °F 69.1 °F 69% 29.94 in 10.0 mi NNE 6.9 mph - N/A   Scattered Clouds
11:53 AM 82.0 °F 84.9 °F 68.0 °F 62% 29.94 in 10.0 mi North 9.2 mph - N/A   Scattered Clouds
12:53 PM 84.0 °F 85.8 °F 64.9 °F 53% 29.93 in 10.0 mi North 11.5 mph - N/A   Mostly Cloudy
1:53 PM 86.0 °F 86.8 °F 63.0 °F 46% 29.91 in 10.0 mi North 9.2 mph - N/A   Scattered Clouds
2:53 PM 87.1 °F 87.8 °F 63.0 °F 44% 29.90 in 10.0 mi North 8.1 mph - N/A   Scattered Clouds
3:53 PM 86.0 °F 86.8 °F 63.0 °F 46% 29.88 in 10.0 mi North 10.4 mph 19.6 mph N/A   Scattered Clouds
4:53 PM 87.1 °F 87.8 °F 63.0 °F 44% 29.89 in 10.0 mi North 10.4 mph - N/A   Scattered Clouds
5:53 PM 86.0 °F 86.1 °F 61.0 °F 43% 29.89 in 10.0 mi NNW 9.2 mph - N/A   Partly Cloudy
6:53 PM 82.9 °F 83.2 °F 60.1 °F 46% 29.90 in 10.0 mi North 10.4 mph - N/A   Partly Cloudy
7:53 PM 80.1 °F 80.6 °F 57.9 °F 47% 29.91 in 10.0 mi North 9.2 mph - N/A   Clear
8:53 PM 78.1 °F - 57.9 °F 50% 29.92 in 10.0 mi North 5.8 mph - N/A   Clear
9:53 PM 75.9 °F - 59.0 °F 56% 29.94 in 10.0 mi North 5.8 mph - N/A   Clear
10:53 PM 73.9 °F - 59.0 °F 59% 29.94 in 10.0 mi North 6.9 mph - N/A   Partly Cloudy
11:53 PM 73.0 °F - 60.1 °F 64% 29.94 in 10.0 mi North 6.9 mph - N/A   Partly Cloudy